Location: Lombard
(41.8800°N, 88.0080°W)
Time: 03:45:13
(UTC-05:00)

Vanguard 2 Rocket - Pass Details

Date: 25 February 2024
Orbit: 555 x 3307 km, 32.9° (Epoch: 12 April)

Event Time Altitude Azimuth Distance (km) Brightness Sun altitude
Rises 11:47:28 0° 189° (S) 3,622 10.8 38.9°
Reaches altitude 10° 11:51:02 10° 166° (SSE) 3,076 10.8 38.9°
Maximum altitude 11:55:14 15° 133° (SE) 3,157 10.4 39.0°
Drops below altitude 10° 12:00:37 10° 102° (ESE) 4,168 10.5 39.0°
Sets 12:06:58 0° 84° (E) 5,822 11.0 39.0°
